Overview Statistics Trail Chart Weather Telemetry Raw packets
 

This is the latest recevied weather packets stored in our database for station/object WW5JC. If no packets are shown the sender has not sent any weather packets the latest 10 day(s).

<< 90 91 92 93 94 95 96 >>
Time Temp. Humidity Pressure Rain* Wind** Luminosity Snow
1787959328 37.22° C 34% 1016.4 hPa 0 mm - 108 W/m² -
1787959027 36.67° C 33% 1016.2 hPa 0 mm - 119 W/m² -
1787958723 36.11° C 36% 1016.2 hPa 0 mm - 130 W/m² -
1787958418 35.56° C 37% 1016.4 hPa 0 mm - 142 W/m² -
1787958114 35.56° C 37% 1016.4 hPa 0 mm - 61 W/m² -
1787957813 35.56° C 37% 1016.4 hPa 0 mm - 64 W/m² -
1787957507 35.56° C 38% 1016.1 hPa 0 mm - 164 W/m² -
1787957203 36.11° C 36% 1016.3 hPa 0 mm - 58 W/m² -
1787956898 36.11° C 35% 1016.1 hPa 0 mm - 60 W/m² -
1787956597 36.67° C 34% 1016.2 hPa 0 mm - 92 W/m² -
1787956291 37.22° C 34% 1016.4 hPa 0 mm - 85 W/m² -
1787955987 37.22° C 34% 1016.5 hPa 0 mm - 248 W/m² -
1787955683 37.22° C 34% 1016.3 hPa 0 mm - 253 W/m² -
1787955379 37.78° C 33% 1016.5 hPa 0 mm - 291 W/m² -
1787955077 37.22° C 34% 1016.4 hPa 0 mm - 315 W/m² -
1787954773 37.22° C 35% 1016.5 hPa 0 mm - 331 W/m² -
1787954469 37.78° C 31% 1016.5 hPa 0 mm - 356 W/m² -
1787954168 38.33° C 31% 1016.6 hPa 0 mm - 364 W/m² -
1787953863 37.78° C 32% 1016.6 hPa 0 mm - 366 W/m² -
1787953556 37.78° C 31% 1016.8 hPa 0 mm - 368 W/m² -
1787953251 38.33° C 31% 1016.8 hPa 0 mm - 390 W/m² -
1787952948 37.78° C 30% 1016.8 hPa 0 mm - 406 W/m² -
1787952642 37.78° C 31% 1016.7 hPa 0 mm - 422 W/m² -
1787952342 37.78° C 32% 1016.9 hPa 0 mm - 430 W/m² -
1787952033 37.78° C 32% 1016.8 hPa 0 mm - 450 W/m² -

* Rain latest hour (hover to see other rain measurements)
** Current wind speed in m/s (hover to see current wind gust speed)